Powrót do katalogu

KUIPER-00569

AktywnyŁącznośćLEO
NORAD 69766·PAYLOAD·🇺🇸 United States

Wystrzelony Jul 2, 2026 z Cape Canaveral Space Force Station

Loading…

Następne Przeloty (najbliższe 24 godziny)

TLE

ŚwieżeSource: CelesTrak SupGP

Epoka: Sep 14, 2026, 21:28 UTC

1 69766C 26151D   26257.89451389  .00003700  00000+0  48440-3 0  2577
2 69766  51.9005 256.4676 0000786  42.6544 195.6484 14.79923666    19

Śledź KUIPER-00569 w czasie rzeczywistym z AllMySat

Download on the App Store